| time (UTC) | temp F | wind direction | speed MPH | gust MPH | rain 1hr in | rain 24hr in | rain mn in | humidity % | barometer mb |
| 20260904213755 | 54 | 89 | 0.0 | 13.0 | 0.00 | 0.00 | 0.21 | 96 | 1000.3 |
| 20260904213254 | 54 | 90 | 0.0 | 13.0 | 0.00 | 0.00 | 0.20 | 96 | 1000.3 |
| 20260904212753 | 54 | 91 | 0.0 | 13.0 | 0.00 | 0.00 | 0.20 | 96 | 1000.2 |
| 20260904212253 | 54 | 91 | 0.0 | 13.0 | 0.00 | 0.00 | 0.20 | 96 | 1000.5 |
| 20260904211752 | 54 | 91 | 0.0 | 13.0 | 0.00 | 0.00 | 0.20 | 95 | 1000.2 |
| 20260904211252 | 54 | 91 | 0.0 | 13.0 | 0.00 | 0.00 | 0.20 | 95 | 1000.3 |
| 20260904210752 | 54 | 91 | 0.0 | 13.0 | 0.00 | 0.00 | 0.20 | 95 | 1000.3 |
| 20260904210252 | 55 | 91 | 0.0 | 13.0 | 0.00 | 0.00 | 0.20 | 95 | 999.9 |
| 20260904205752 | 55 | 90 | 0.0 | 13.0 | 0.00 | 0.00 | 0.20 | 95 | 1000.0 |
| 20260904205251 | 55 | 92 | 0.0 | 13.0 | 0.00 | 0.00 | 0.20 | 95 | 1000.0 |
| 20260904204751 | 55 | 87 | 0.0 | 13.0 | 0.00 | 0.00 | 0.20 | 95 | 1000.1 |
| 20260904204251 | 55 | 86 | 0.0 | 13.0 | 0.00 | 0.00 | 0.20 | 95 | 1000.2 |
| 20260904203750 | 55 | 89 | 0.0 | 13.0 | 0.00 | 0.00 | 0.20 | 95 | 1000.2 |
| 20260904203250 | 55 | 239 | 0.0 | 13.0 | 0.00 | 0.00 | 0.20 | 95 | 999.9 |
| 20260904202750 | 55 | 263 | 0.0 | 13.0 | 0.00 | 0.00 | 0.20 | 95 | 1000.3 |
| 20260904201217 | 55 | 243 | 0.0 | 13.0 | 0.00 | 0.00 | 0.20 | 95 | 1000.1 |
| 20260904200717 | 55 | 238 | 0.0 | 13.0 | 0.00 | 0.00 | 0.20 | 95 | 1000.1 |
| 20260904200216 | 55 | 236 | 0.0 | 13.0 | 0.00 | 0.00 | 0.20 | 95 | 1000.1 |
| 20260904195715 | 55 | 238 | 0.0 | 13.0 | 0.00 | 0.00 | 0.20 | 95 | 1000.0 |
| 20260904194144 | 55 | 237 | 0.0 | 13.0 | 0.00 | 0.00 | 0.20 | 95 | 1000.1 |
| 20260904193643 | 55 | 237 | 0.0 | 13.0 | 0.00 | 0.00 | 0.20 | 95 | 999.8 |
| 20260904193143 | 55 | 236 | 0.0 | 13.0 | 0.00 | 0.00 | 0.20 | 95 | 1000.0 |
| 20260904192643 | 55 | 236 | 0.0 | 13.0 | 0.00 | 0.00 | 0.20 | 95 | 1000.1 |
| 20260904192143 | 55 | 237 | 0.0 | 13.0 | 0.00 | 0.00 | 0.20 | 95 | 1000.2 |
| 20260904191642 | 55 | 237 | 0.0 | 13.0 | 0.00 | 0.00 | 0.20 | 94 | 999.6 |
| 20260904191142 | 55 | 237 | 0.0 | 13.0 | 0.00 | 0.00 | 0.20 | 94 | 1000.2 |
| 20260904190125 | 55 | 236 | 0.0 | 13.0 | 0.00 | 0.00 | 0.20 | 93 | 1000.1 |
| 20260904185625 | 55 | 237 | 0.0 | 13.0 | 0.00 | 0.00 | 0.20 | 93 | 1000.4 |
| 20260904184609 | 55 | 240 | 0.0 | 13.0 | 0.00 | 0.00 | 0.20 | 92 | 1000.2 |
| 20260904184109 | 55 | 241 | 0.0 | 13.0 | 0.00 | 0.00 | 0.20 | 92 | 1000.1 |
| 20260904183608 | 55 | 242 | 0.0 | 13.0 | 0.00 | 0.00 | 0.20 | 92 | 1000.2 |
| 20260904183107 | 55 | 245 | 0.0 | 13.0 | 0.00 | 0.00 | 0.20 | 91 | 1000.1 |
| 20260904182606 | 56 | 237 | 0.0 | 13.0 | 0.00 | 0.00 | 0.20 | 91 | 1000.2 |
| 20260904182106 | 56 | 236 | 0.0 | 13.0 | 0.00 | 0.00 | 0.20 | 91 | 1000.2 |
| 20260904181606 | 56 | 238 | 0.0 | 13.0 | 0.00 | 0.00 | 0.20 | 91 | 1000.2 |
| 20260904181106 | 56 | 244 | 0.0 | 13.0 | 0.00 | 0.00 | 0.20 | 91 | 1000.0 |
| 20260904180605 | 56 | 273 | 0.0 | 13.0 | 0.00 | 0.00 | 0.20 | 90 | 1000.2 |
| 20260904175550 | 57 | 263 | 0.0 | 13.0 | 0.00 | 0.00 | 0.20 | 89 | 1000.1 |
| 20260904175049 | 57 | 279 | 0.0 | 13.0 | 0.00 | 0.00 | 0.20 | 89 | 999.9 |
| 20260904174033 | 58 | 223 | 0.0 | 13.0 | 0.00 | 0.00 | 0.20 | 89 | 1000.0 |
| 20260904173532 | 58 | 223 | 0.0 | 13.0 | 0.00 | 0.00 | 0.20 | 89 | 1000.0 |
| 20260904173032 | 58 | 245 | 0.0 | 13.0 | 0.00 | 0.00 | 0.20 | 89 | 999.9 |
| 20260904172532 | 58 | 223 | 0.0 | 13.0 | 0.00 | 0.00 | 0.20 | 88 | 999.8 |
| 20260904172032 | 58 | 223 | 0.0 | 13.0 | 0.00 | 0.00 | 0.20 | 88 | 1000.0 |
| 20260904171532 | 58 | 222 | 0.0 | 13.0 | 0.00 | 0.00 | 0.20 | 88 | 1000.0 |
| 20260904171032 | 58 | 222 | 0.0 | 13.0 | 0.00 | 0.00 | 0.20 | 88 | 999.9 |
| 20260904170530 | 58 | 226 | 0.0 | 13.0 | 0.00 | 0.00 | 0.20 | 88 | 1000.1 |
| 20260904170030 | 58 | 226 | 0.0 | 13.0 | 0.00 | 0.00 | 0.20 | 88 | 1000.2 |
| 20260904165530 | 59 | 226 | 0.0 | 13.0 | 0.00 | 0.00 | 0.20 | 88 | 1000.1 |
| 20260904165029 | 59 | 226 | 0.0 | 13.0 | 0.00 | 0.00 | 0.20 | 87 | 1000.0 |
| 20260904164528 | 59 | 229 | 0.0 | 13.0 | 0.00 | 0.00 | 0.20 | 87 | 1000.0 |
| 20260904163512 | 59 | 191 | 0.0 | 13.0 | 0.00 | 0.00 | 0.20 | 87 | 999.9 |
| 20260904163011 | 59 | 165 | 0.0 | 13.0 | 0.00 | 0.00 | 0.20 | 87 | 1000.1 |
| 20260904162511 | 58 | 165 | 0.0 | 13.0 | 0.00 | 0.00 | 0.20 | 87 | 1000.0 |
| 20260904162011 | 58 | 163 | 0.0 | 13.0 | 0.00 | 0.00 | 0.20 | 87 | 1000.0 |
| 20260904161511 | 59 | 224 | 0.0 | 13.0 | 0.00 | 0.00 | 0.20 | 87 | 1000.0 |
| 20260904161010 | 59 | 224 | 0.0 | 13.0 | 0.00 | 0.00 | 0.20 | 87 | 1000.3 |
| 20260904160509 | 59 | 240 | 0.0 | 13.0 | 0.00 | 0.00 | 0.20 | 87 | 1000.1 |
| 20260904160008 | 59 | 241 | 0.0 | 13.0 | 0.00 | 0.00 | 0.20 | 87 | 999.9 |
| 20260904155507 | 59 | 241 | 0.0 | 13.0 | 0.00 | 0.00 | 0.20 | 87 | 1000.3 |
| 20260904155007 | 59 | 241 | 0.0 | 13.0 | 0.00 | 0.00 | 0.20 | 87 | 1000.0 |
| 20260904153434 | 58 | 196 | 0.0 | 13.0 | 0.00 | 0.00 | 0.20 | 89 | 1000.2 |
| 20260904152933 | 58 | 208 | 0.0 | 13.0 | 0.00 | 0.00 | 0.20 | 89 | 999.9 |
| 20260904152432 | 58 | 220 | 0.0 | 13.0 | 0.00 | 0.00 | 0.20 | 90 | 1000.0 |
| 20260904151932 | 58 | 203 | 0.0 | 13.0 | 0.00 | 0.00 | 0.20 | 90 | 1000.3 |
| 20260904151432 | 58 | 229 | 0.0 | 13.0 | 0.00 | 0.00 | 0.20 | 90 | 1000.4 |
| 20260904145859 | 58 | 222 | 0.0 | 13.0 | 0.00 | 0.00 | 0.20 | 90 | 1000.2 |
| 20260904145359 | 58 | 214 | 0.0 | 13.0 | 0.00 | 0.00 | 0.20 | 90 | 1000.2 |
| 20260904144859 | 58 | 230 | 0.0 | 13.0 | 0.00 | 0.00 | 0.20 | 91 | 1000.4 |
| 20260904144358 | 58 | 234 | 0.0 | 13.0 | 0.00 | 0.00 | 0.20 | 91 | 1000.3 |
| 20260904143857 | 58 | 234 | 0.0 | 13.0 | 0.00 | 0.00 | 0.20 | 90 | 1000.7 |
| 20260904143357 | 58 | 222 | 0.0 | 13.0 | 0.00 | 0.00 | 0.20 | 90 | 1000.7 |
| 20260904142857 | 58 | 239 | 0.0 | 13.0 | 0.00 | 0.00 | 0.20 | 90 | 1000.6 |
| 20260904142356 | 58 | 239 | 0.0 | 13.0 | 0.00 | 0.00 | 0.20 | 89 | 1000.8 |
| 20260904141342 | 58 | 154 | 0.0 | 13.0 | 0.00 | 0.00 | 0.20 | 87 | 1001.0 |
| 20260904140840 | 58 | 201 | 0.0 | 13.0 | 0.00 | 0.00 | 0.20 | 87 | 1001.1 |
| 20260904140339 | 58 | 210 | 0.0 | 13.0 | 0.00 | 0.00 | 0.20 | 85 | 1000.5 |
| 20260904135838 | 59 | 227 | 0.0 | 13.0 | 0.00 | 0.00 | 0.20 | 84 | 1000.8 |
| 20260904135339 | 59 | 88 | 0.0 | 13.0 | 0.00 | 0.00 | 0.20 | 83 | 1000.7 |
| 20260904134839 | 60 | 168 | 1.0 | 13.0 | 0.00 | 0.00 | 0.20 | 81 | 1000.8 |
| 20260904133821 | 60 | 157 | 0.0 | 13.0 | 0.00 | 0.00 | 0.20 | 81 | 1000.9 |
| 20260904133320 | 60 | 111 | 1.0 | 13.0 | 0.00 | 0.00 | 0.20 | 80 | 1001.0 |
| 20260904132819 | 60 | 132 | 0.0 | 13.0 | 0.00 | 0.00 | 0.20 | 80 | 1001.1 |
| 20260904132319 | 60 | 85 | 0.0 | 13.0 | 0.00 | 0.00 | 0.20 | 80 | 1000.9 |
| 20260904131819 | 61 | 222 | 0.0 | 13.0 | 0.00 | 0.00 | 0.20 | 79 | 1000.7 |
| 20260904131318 | 61 | 116 | 0.0 | 13.0 | 0.00 | 0.00 | 0.20 | 80 | 1001.1 |
| 20260904130818 | 60 | 205 | 0.0 | 13.0 | 0.00 | 0.00 | 0.20 | 82 | 1001.1 |
| 20260904125801 | 60 | 218 | 0.0 | 13.0 | 0.00 | 0.00 | 0.20 | 81 | 1001.0 |
| 20260904125305 | 60 | 207 | 0.0 | 13.0 | 0.00 | 0.00 | 0.20 | 81 | 1000.9 |
| 20260904124800 | 60 | 163 | 0.0 | 13.0 | 0.00 | 0.00 | 0.20 | 82 | 1001.0 |
| 20260904123744 | 60 | 236 | 0.0 | 13.0 | 0.00 | 0.00 | 0.20 | 83 | 1001.2 |
| 20260904123243 | 60 | 216 | 0.0 | 13.0 | 0.00 | 0.00 | 0.20 | 82 | 1001.6 |
| 20260904121711 | 60 | 236 | 0.0 | 13.0 | 0.00 | 0.00 | 0.20 | 82 | 1001.7 |
| 20260904121210 | 60 | 202 | 0.0 | 13.0 | 0.00 | 0.00 | 0.20 | 81 | 1001.4 |
| 20260904120710 | 60 | 203 | 0.0 | 13.0 | 0.00 | 0.00 | 0.20 | 81 | 1002.0 |
| 20260904120210 | 60 | 195 | 0.0 | 13.0 | 0.00 | 0.00 | 0.20 | 80 | 1001.8 |
| 20260904115710 | 60 | 257 | 1.0 | 13.0 | 0.00 | 0.00 | 0.20 | 79 | 1001.8 |
| 20260904115209 | 60 | 195 | 0.0 | 13.0 | 0.00 | 0.00 | 0.20 | 80 | 1001.6 |
| 20260904114153 | 60 | 222 | 0.0 | 13.0 | 0.00 | 0.00 | 0.20 | 80 | 1001.5 |
| 20260904113653 | 60 | 169 | 0.0 | 13.0 | 0.00 | 0.00 | 0.20 | 81 | 1001.9 |
| 20260904112637 | 60 | 117 | 0.0 | 13.0 | 0.00 | 0.00 | 0.20 | 84 | 1002.1 |
| 20260904112136 | 60 | 257 | 0.0 | 13.0 | 0.00 | 0.00 | 0.20 | 83 | 1002.1 |
| 20260904111636 | 60 | 206 | 0.0 | 13.0 | 0.00 | 0.00 | 0.20 | 83 | 1001.8 |
| 20260904111135 | 60 | 154 | 1.0 | 13.0 | 0.00 | 0.00 | 0.20 | 84 | 1001.8 |
| 20260904105602 | 60 | 212 | 1.0 | 13.0 | 0.00 | 0.00 | 0.20 | 85 | 1002.8 |
| 20260904105101 | 59 | 166 | 0.0 | 13.0 | 0.00 | 0.00 | 0.20 | 86 | 1002.8 |
| 20260904104601 | 59 | 54 | 0.0 | 13.0 | 0.00 | 0.00 | 0.20 | 87 | 1002.6 |
| 20260904104100 | 59 | 206 | 0.0 | 13.0 | 0.00 | 0.00 | 0.20 | 87 | 1003.0 |
| 20260904103600 | 59 | 185 | 1.0 | 13.0 | 0.00 | 0.00 | 0.20 | 88 | 1002.5 |
| 20260904103059 | 59 | 196 | 0.0 | 13.0 | 0.00 | 0.00 | 0.20 | 90 | 1002.8 |
| 20260904102559 | 59 | 184 | 0.0 | 13.0 | 0.00 | 0.00 | 0.20 | 89 | 1003.3 |
| 20260904102058 | 59 | 227 | 0.0 | 13.0 | 0.00 | 0.00 | 0.20 | 88 | 1002.7 |
| 20260904101558 | 59 | 216 | 0.0 | 13.0 | 0.00 | 0.00 | 0.20 | 87 | 1002.6 |
| 20260904100542 | 60 | 208 | 0.0 | 13.0 | 0.00 | 0.00 | 0.20 | 84 | 1002.9 |
| 20260904100041 | 60 | 200 | 0.0 | 13.0 | 0.00 | 0.00 | 0.20 | 82 | 1002.6 |
| 20260904095541 | 60 | 228 | 1.0 | 13.0 | 0.00 | 0.00 | 0.20 | 81 | 1002.8 |
| 20260904095040 | 60 | 204 | 1.0 | 13.0 | 0.00 | 0.00 | 0.20 | 81 | 1002.6 |
| 20260904094540 | 60 | 235 | 1.0 | 13.0 | 0.00 | 0.00 | 0.20 | 82 | 1002.9 |
| 20260904094039 | 60 | 217 | 1.0 | 13.0 | 0.00 | 0.00 | 0.20 | 81 | 1003.0 |
| 20260904093538 | 60 | 174 | 0.0 | 13.0 | 0.00 | 0.00 | 0.20 | 82 | 1003.3 |
| 20260904093038 | 60 | 229 | 0.0 | 13.0 | 0.00 | 0.00 | 0.20 | 83 | 1003.3 |
| 20260904092537 | 60 | 246 | 1.0 | 13.0 | 0.00 | 0.00 | 0.20 | 84 | 1003.5 |
| 20260904092036 | 60 | 154 | 1.0 | 13.0 | 0.00 | 0.00 | 0.20 | 84 | 1003.3 |
| 20260904091536 | 60 | 206 | 0.0 | 13.0 | 0.00 | 0.00 | 0.20 | 84 | 1003.3 |
| 20260904091036 | 59 | 208 | 2.0 | 13.0 | 0.00 | 0.00 | 0.20 | 83 | 1003.3 |
| 20260904090535 | 59 | 201 | 2.0 | 13.0 | 0.00 | 0.00 | 0.20 | 83 | 1003.5 |
| 20260904090034 | 60 | 228 | 1.0 | 13.0 | 0.00 | 0.00 | 0.20 | 85 | 1003.6 |
| 20260904085533 | 59 | 206 | 1.0 | 13.0 | 0.00 | 0.00 | 0.20 | 85 | 1003.2 |
| 20260904085032 | 59 | 215 | 1.0 | 13.0 | 0.00 | 0.00 | 0.20 | 85 | 1003.0 |
| 20260904084532 | 59 | 233 | 0.0 | 13.0 | 0.00 | 0.00 | 0.20 | 86 | 1003.4 |
| 20260904084031 | 59 | 221 | 1.0 | 13.0 | 0.00 | 0.00 | 0.20 | 86 | 1003.3 |
| 20260904083531 | 59 | 206 | 3.0 | 13.0 | 0.00 | 0.00 | 0.20 | 86 | 1003.6 |
| 20260904083030 | 59 | 224 | 1.0 | 13.0 | 0.00 | 0.00 | 0.20 | 88 | 1003.5 |
| 20260904082529 | 59 | 223 | 1.0 | 13.0 | 0.00 | 0.00 | 0.20 | 90 | 1003.4 |
| 20260904082029 | 58 | 210 | 0.0 | 13.0 | 0.00 | 0.00 | 0.20 | 90 | 1003.3 |
| 20260904081013 | 58 | 333 | 1.0 | 13.0 | 0.00 | 0.00 | 0.20 | 91 | 1003.5 |
| 20260904080513 | 58 | 204 | 2.0 | 13.0 | 0.00 | 0.00 | 0.20 | 91 | 1003.8 |
| 20260904080013 | 58 | 274 | 0.0 | 13.0 | 0.00 | 0.00 | 0.20 | 92 | 1003.4 |
| 20260904075513 | 58 | 338 | 1.0 | 13.0 | 0.00 | 0.00 | 0.20 | 92 | 1003.5 |
| 20260904075012 | 57 | 275 | 0.0 | 13.0 | 0.00 | 0.00 | 0.20 | 93 | 1003.2 |
| 20260904074511 | 57 | 229 | 1.0 | 13.0 | 0.00 | 0.00 | 0.20 | 93 | 1003.7 |
| 20260904074010 | 57 | 217 | 0.0 | 13.0 | 0.00 | 0.00 | 0.20 | 94 | 1003.5 |
| 20260904073510 | 57 | 198 | 1.0 | 13.0 | 0.00 | 0.00 | 0.20 | 94 | 1004.1 |
| 20260904073009 | 56 | 206 | 0.0 | 13.0 | 0.00 | 0.00 | 0.20 | 95 | 1003.9 |
| 20260904072508 | 56 | 234 | 1.0 | 13.0 | 0.00 | 0.00 | 0.20 | 95 | 1004.0 |
| 20260904072008 | 56 | 149 | 0.0 | 13.0 | 0.00 | 0.00 | 0.20 | 95 | 1004.2 |
| 20260904071508 | 56 | 253 | 1.0 | 13.0 | 0.00 | 0.00 | 0.20 | 95 | 1004.0 |
| 20260904071007 | 56 | 192 | 0.0 | 13.0 | 0.00 | 0.00 | 0.20 | 95 | 1004.0 |
| 20260904070507 | 56 | 219 | 0.0 | 13.0 | 0.00 | 0.00 | 0.20 | 95 | 1004.0 |
| 20260904065450 | 56 | 179 | 1.0 | 13.0 | 0.00 | 0.00 | 0.20 | 95 | 1004.5 |
| 20260904064950 | 56 | 197 | 0.0 | 13.0 | 0.00 | 0.00 | 0.20 | 95 | 1004.3 |
| 20260904064449 | 56 | 182 | 0.0 | 13.0 | 0.00 | 0.00 | 0.20 | 96 | 1004.7 |
| 20260904063948 | 55 | 197 | 1.0 | 13.0 | 0.00 | 0.00 | 0.20 | 95 | 1004.7 |
| 20260904063448 | 55 | 113 | 0.0 | 13.0 | 0.00 | 0.00 | 0.20 | 95 | 1004.8 |
| 20260904062948 | 55 | 197 | 0.0 | 13.0 | 0.00 | 0.00 | 0.20 | 95 | 1004.5 |
| 20260904062447 | 55 | 258 | 0.0 | 13.0 | 0.00 | 0.00 | 0.20 | 95 | 1004.2 |
| 20260904061946 | 55 | 190 | 1.0 | 13.0 | 0.00 | 0.00 | 0.20 | 95 | 1004.7 |
| 20260904061446 | 55 | 214 | 0.0 | 13.0 | 0.00 | 0.00 | 0.20 | 95 | 1004.7 |
| 20260904055357 | 55 | 194 | 2.0 | 13.0 | 0.00 | 0.00 | 0.20 | 96 | 1004.8 |
| 20260904054341 | 55 | 236 | 1.0 | 13.0 | 0.00 | 0.00 | 0.20 | 96 | 1004.7 |
| 20260904053840 | 55 | 220 | 0.0 | 13.0 | 0.00 | 0.00 | 0.20 | 96 | 1004.5 |
| 20260904053339 | 55 | 204 | 1.0 | 13.0 | 0.00 | 0.00 | 0.20 | 96 | 1004.9 |
| 20260904052838 | 55 | 187 | 1.0 | 13.0 | 0.00 | 0.00 | 0.20 | 96 | 1004.2 |
| 20260904052337 | 55 | 185 | 1.0 | 13.0 | 0.00 | 0.00 | 0.20 | 96 | 1004.8 |
| 20260904051321 | 55 | 205 | 0.0 | 13.0 | 0.00 | 0.00 | 0.20 | 97 | 1004.6 |
| 20260904050820 | 55 | 198 | 0.0 | 13.0 | 0.00 | 0.00 | 0.20 | 97 | 1004.6 |
| 20260904050320 | 55 | 284 | 0.0 | 13.0 | 0.00 | 0.00 | 0.20 | 97 | 1004.6 |
| 20260904045306 | 55 | 218 | 0.0 | 13.0 | 0.00 | 0.00 | 0.20 | 97 | 1004.7 |
| 20260904044803 | 55 | 191 | 0.0 | 13.0 | 0.00 | 0.00 | 0.20 | 97 | 1004.5 |
| 20260904043231 | 55 | 233 | 0.0 | 13.0 | 0.00 | 0.00 | 0.20 | 97 | 1005.0 |
| 20260904042730 | 55 | 225 | 0.0 | 13.0 | 0.00 | 0.00 | 0.20 | 97 | 1005.1 |
| 20260904042229 | 55 | 212 | 0.0 | 13.0 | 0.00 | 0.00 | 0.20 | 97 | 1004.8 |
| 20260904041729 | 55 | 138 | 0.0 | 13.0 | 0.00 | 0.00 | 0.20 | 97 | 1005.1 |
| 20260904040158 | 55 | 200 | 0.0 | 13.0 | 0.00 | 0.00 | 0.20 | 97 | 1004.8 |
| 20260904035657 | 55 | 235 | 0.0 | 13.0 | 0.00 | 0.00 | 0.20 | 97 | 1004.9 |
| 20260904035157 | 55 | 245 | 0.0 | 13.0 | 0.00 | 0.00 | 0.20 | 97 | 1004.7 |
| 20260904034656 | 55 | 236 | 0.0 | 13.0 | 0.00 | 0.00 | 0.20 | 97 | 1004.8 |
| 20260904034155 | 55 | 189 | 0.0 | 13.0 | 0.00 | 0.00 | 0.20 | 97 | 1005.1 |
| 20260904033655 | 55 | 217 | 0.0 | 13.0 | 0.00 | 0.00 | 0.20 | 97 | 1005.1 |
| 20260904032639 | 55 | 217 | 0.0 | 13.0 | 0.00 | 0.00 | 0.20 | 97 | 1005.1 |
| 20260904032138 | 55 | 196 | 1.0 | 13.0 | 0.00 | 0.00 | 0.20 | 97 | 1005.7 |
| 20260904031638 | 55 | 169 | 1.0 | 13.0 | 0.00 | 0.00 | 0.20 | 97 | 1005.5 |
| 20260904031137 | 55 | 199 | 0.0 | 13.0 | 0.00 | 0.00 | 0.20 | 97 | 1005.3 |
| 20260904030636 | 55 | 163 | 1.0 | 13.0 | 0.00 | 0.00 | 0.20 | 97 | 1005.7 |
| 20260904030136 | 55 | 215 | 0.0 | 13.0 | 0.00 | 0.00 | 0.20 | 97 | 1005.2 |
| 20260904025636 | 55 | 213 | 0.0 | 13.0 | 0.00 | 0.00 | 0.20 | 97 | 1005.5 |
| 20260904025135 | 55 | 212 | 0.0 | 13.0 | 0.00 | 0.00 | 0.20 | 97 | 1005.4 |
| 20260904024635 | 55 | 191 | 0.0 | 13.0 | 0.00 | 0.00 | 0.20 | 97 | 1005.6 |
| 20260904024135 | 55 | 224 | 0.0 | 13.0 | 0.00 | 0.00 | 0.20 | 97 | 1005.3 |
| 20260904023119 | 55 | 218 | 0.0 | 13.0 | 0.00 | 0.00 | 0.20 | 97 | 1005.1 |
| 20260904022619 | 55 | 214 | 1.0 | 13.0 | 0.00 | 0.00 | 0.20 | 97 | 1005.3 |
| 20260904022118 | 55 | 242 | 1.0 | 13.0 | 0.00 | 0.00 | 0.20 | 97 | 1005.1 |
| 20260904021618 | 55 | 220 | 1.0 | 13.0 | 0.00 | 0.00 | 0.20 | 97 | 1005.2 |
| 20260904021117 | 56 | 235 | 1.0 | 13.0 | 0.00 | 0.00 | 0.20 | 97 | 1005.5 |
| 20260904020617 | 56 | 203 | 1.0 | 13.0 | 0.00 | 0.00 | 0.20 | 97 | 1005.6 |
| 20260904020116 | 56 | 216 | 1.0 | 13.0 | 0.00 | 0.00 | 0.20 | 97 | 1005.2 |
| 20260904015616 | 56 | 231 | 1.0 | 13.0 | 0.00 | 0.00 | 0.20 | 97 | 1005.4 |
| 20260904015116 | 56 | 194 | 0.0 | 13.0 | 0.00 | 0.00 | 0.20 | 97 | 1005.3 |
| 20260904014616 | 56 | 178 | 1.0 | 13.0 | 0.01 | 0.00 | 0.20 | 97 | 1005.5 |
| 20260904014115 | 56 | 218 | 2.0 | 13.0 | 0.01 | 0.00 | 0.20 | 97 | 1005.2 |
| 20260904013614 | 56 | 215 | 0.0 | 12.0 | 0.03 | 0.00 | 0.20 | 97 | 1005.3 |
| 20260904013114 | 56 | 245 | 0.0 | 12.0 | 0.04 | 0.00 | 0.20 | 97 | 1005.4 |
| 20260904012613 | 56 | 227 | 0.0 | 12.0 | 0.04 | 0.00 | 0.20 | 97 | 1005.2 |
| 20260904012113 | 56 | 227 | 0.0 | 12.0 | 0.04 | 0.00 | 0.20 | 97 | 1005.4 |
| 20260904011057 | 56 | 208 | 1.0 | 12.0 | 0.06 | 0.00 | 0.20 | 97 | 1005.8 |
| 20260904010557 | 56 | 230 | 2.0 | 12.0 | 0.06 | 0.00 | 0.20 | 97 | 1005.9 |
| 20260904010057 | 57 | 224 | 2.0 | 14.0 | 0.06 | 0.00 | 0.20 | 97 | 1005.3 |
| 20260904005556 | 57 | 232 | 1.0 | 14.0 | 0.07 | 0.00 | 0.19 | 98 | 1005.8 |
| 20260904005056 | 57 | 201 | 1.0 | 14.0 | 0.07 | 0.00 | 0.19 | 98 | 1005.7 |
| 20260904004556 | 57 | 222 | 1.0 | 14.0 | 0.07 | 0.00 | 0.19 | 98 | 1005.4 |
| 20260904004055 | 57 | 228 | 1.0 | 14.0 | 0.08 | 0.00 | 0.18 | 98 | 1005.5 |
| 20260904003554 | 57 | 216 | 0.0 | 14.0 | 0.07 | 0.00 | 0.16 | 98 | 1005.6 |
| 20260904003054 | 57 | 231 | 1.0 | 14.0 | 0.06 | 0.00 | 0.15 | 98 | 1005.6 |
| 20260904001008 | 58 | 212 | 0.0 | 14.0 | 0.07 | 0.00 | 0.13 | 98 | 1005.6 |
| 20260904000507 | 58 | 218 | 0.0 | 14.0 | 0.07 | 0.00 | 0.13 | 98 | 1005.4 |
| 20260904000006 | 58 | 233 | 0.0 | 14.0 | 0.09 | 0.00 | 0.13 | 98 | 1005.5 |
| 20260903235506 | 58 | 277 | 0.0 | 14.0 | 0.07 | 0.00 | 0.11 | 98 | 1005.3 |
| 20260903235006 | 58 | 214 | 0.0 | 14.0 | 0.08 | 0.00 | 0.11 | 98 | 1005.5 |
| 20260903234505 | 58 | 243 | 0.0 | 14.0 | 0.08 | 0.00 | 0.11 | 98 | 1005.3 |
| 20260903234005 | 57 | 219 | 0.0 | 14.0 | 0.07 | 0.00 | 0.09 | 98 | 1005.2 |
| 20260903233504 | 57 | 190 | 0.0 | 14.0 | 0.07 | 0.00 | 0.09 | 98 | 1005.4 |
| 20260903233004 | 57 | 142 | 0.0 | 14.0 | 0.07 | 0.00 | 0.08 | 98 | 1005.6 |
| 20260903232504 | 57 | 142 | 0.0 | 14.0 | 0.06 | 0.00 | 0.07 | 98 | 1005.6 |
| 20260903231447 | 57 | 144 | 0.0 | 14.0 | 0.06 | 0.00 | 0.06 | 98 | 1005.5 |
| 20260903230946 | 57 | 144 | 0.0 | 14.0 | 0.05 | 0.00 | 0.06 | 98 | 1005.5 |
| 20260903225931 | 57 | 144 | 0.0 | 14.0 | 0.04 | 0.00 | 0.04 | 98 | 1005.7 |
| 20260903225430 | 57 | 144 | 0.0 | 14.0 | 0.03 | 0.00 | 0.03 | 98 | 1005.9 |
| 20260903224930 | 57 | 144 | 0.0 | 14.0 | 0.03 | 0.00 | 0.03 | 98 | 1005.6 |
| 20260903224430 | 57 | 144 | 0.0 | 14.0 | 0.03 | 0.00 | 0.03 | 98 | 1005.8 |
| 20260903223930 | 57 | 143 | 0.0 | 14.0 | 0.03 | 0.00 | 0.03 | 98 | 1006.0 |
| 20260903223430 | 57 | 140 | 0.0 | 14.0 | 0.02 | 0.00 | 0.02 | 98 | 1005.9 |
| 20260903222929 | 57 | 140 | 0.0 | 14.0 | 0.00 | 0.00 | 0.00 | 98 | 1005.7 |
| 20260903222428 | 57 | 139 | 0.0 | 14.0 | 0.00 | 0.00 | 0.00 | 98 | 1005.9 |
| 20260903221927 | 57 | 144 | 0.0 | 14.0 | 0.00 | 0.00 | 0.00 | 98 | 1006.1 |
| 20260903220911 | 57 | 148 | 0.0 | 14.0 | 0.00 | 0.00 | 0.00 | 98 | 1006.2 |
| 20260903220410 | 57 | 147 | 0.0 | 14.0 | 0.00 | 0.00 | 0.00 | 98 | 1006.0 |
| 20260903215910 | 57 | 147 | 0.0 | 14.0 | 0.00 | 0.00 | 0.30 | 98 | 1006.0 |
| 20260903215409 | 57 | 148 | 0.0 | 14.0 | 0.00 | 0.00 | 0.30 | 98 | 1006.1 |
| 20260903214909 | 57 | 148 | 0.0 | 14.0 | 0.00 | 0.00 | 0.30 | 98 | 1006.2 |